Date String (YYYY-MM-DD hh:mm:ss) UTC,Instrument flags,Ambient pressure (hPa),Sample flow (lpm),Bypass flow (lpm),Sample temperature (°C),Ambient temperature (°C),ASC tube jacket temperature (°C),LED temperature (°C),Box temperature (°C),Sample RH (%),Span deviation,Mass concentration (μg/m³),Mass concentration (μg/m³),Mass concentration (μg/m³)
DateTimeUTC,F1_M11,P_M11,Q1_M11,Q2_M11,T1_M11,T2_M11,T3_M11,T4_M11,T5_M11,U1_M11,ZSPAN_M11,X0_M11,X2_M11,X1_M11
2022-09-08 04:00:00,,0829.2,4.99,0.00,29.5,26.2,00.0,38.1,31.2,16.5,0002.6,0034.91,0017.40,0015.55
2022-09-08 04:01:00,,0829.3,4.98,0.00,29.4,26.6,00.0,38.1,31.1,16.6,0002.2,0035.28,0017.43,0015.57
2022-09-08 04:02:00,,0829.2,5.01,0.00,29.4,27.0,00.0,38.1,31.1,16.6,0002.5,0034.57,0017.46,0015.62
2022-09-08 04:03:00,,0829.2,5.00,0.00,29.4,27.3,00.0,38.1,31.1,16.6,0002.6,0034.75,0017.51,0015.65
2022-09-08 04:04:00,,0829.3,5.00,0.00,29.4,27.6,00.0,38.1,31.2,16.7,0002.6,0035.69,0017.59,0015.66
2022-09-08 04:05:00,,0829.3,5.01,0.00,29.4,27.8,00.0,38.1,31.2,16.6,0002.3,0035.30,0017.72,0015.69
2022-09-08 04:06:00,,0829.2,4.99,0.00,29.4,28.0,00.0,38.1,31.3,16.6,0002.5,0032.82,0017.79,0015.71
2022-09-08 04:07:00,,0829.2,5.00,0.00,29.4,28.2,00.0,38.1,31.4,16.5,0002.2,0031.68,0017.75,0015.72
2022-09-08 04:08:00,,0829.2,4.99,0.00,29.5,28.3,00.0,38.1,31.4,16.5,0002.1,0031.49,0017.80,0015.73
2022-09-08 04:09:00,,0829.3,5.00,0.00,29.5,28.4,00.0,38.2,31.4,16.5,0002.1,0031.73,0017.86,0015.75
2022-09-08 04:10:00,,0829.2,4.99,0.00,29.6,28.6,00.0,38.2,31.5,16.4,0002.5,0032.16,0017.93,0015.75
2022-09-08 04:11:00,,0829.3,5.01,0.00,29.6,28.7,00.0,38.2,31.6,16.4,0002.5,0032.07,0017.92,0015.77
2022-09-08 04:12:00,,0829.2,4.99,0.00,29.7,28.8,00.0,38.3,31.6,16.3,0002.9,0031.73,0017.95,0015.77
2022-09-08 04:13:00,,0829.2,5.02,0.00,29.7,28.3,00.0,38.3,31.6,16.3,0002.5,0031.30,0017.96,0015.77
2022-09-08 04:14:00,,0829.2,5.01,0.00,29.6,26.8,00.0,38.3,31.4,16.3,0002.6,0030.51,0017.92,0015.78
2022-09-08 04:15:00,,0829.2,4.99,0.00,29.6,26.2,00.0,38.2,31.3,16.3,0002.7,0032.05,0017.92,0015.83
2022-09-08 04:16:00,,0829.2,5.00,0.00,29.5,26.4,00.0,38.2,31.2,16.4,0002.9,0033.02,0017.94,0015.88
2022-09-08 04:17:00,,0829.3,5.00,0.00,29.4,26.6,00.0,38.1,31.1,16.5,0002.5,0033.30,0017.98,0015.94
2022-09-08 04:18:00,,0829.2,5.00,0.00,29.4,27.0,00.0,38.1,31.1,16.5,0002.8,0033.35,0018.06,0015.98
2022-09-08 04:19:00,,0829.2,5.00,0.00,29.4,27.4,00.0,38.1,31.2,16.5,0003.0,0033.79,0018.05,0015.99
2022-09-08 04:20:00,,0829.2,5.00,0.00,29.4,27.6,00.0,38.1,31.2,16.4,0003.0,0033.62,0018.02,0015.99
2022-09-08 04:21:00,,0829.2,4.99,0.00,29.4,27.9,00.0,38.1,31.3,16.3,0003.2,0032.98,0017.97,0015.99
2022-09-08 04:22:00,,0829.2,5.01,0.00,29.4,28.1,00.0,38.1,31.3,16.3,0003.5,0031.56,0017.96,0016.01
2022-09-08 04:23:00,,0829.2,4.99,0.00,29.5,28.2,00.0,38.1,31.4,16.4,0003.8,0032.37,0017.97,0016.04
2022-09-08 04:24:00,,0829.2,5.02,0.00,29.5,28.4,00.0,38.2,31.4,16.4,0004.0,0032.71,0018.02,0016.06
2022-09-08 04:25:00,,0829.2,4.99,0.00,29.5,28.5,00.0,38.2,31.5,16.4,0003.7,0032.54,0018.04,0016.07
2022-09-08 04:26:00,,0829.2,5.02,0.00,29.6,28.6,00.0,38.2,31.5,16.3,0003.4,0031.19,0018.11,0016.08
2022-09-08 04:27:00,,0829.2,4.99,0.00,29.6,28.7,00.0,38.2,31.6,16.3,0003.3,0030.03,0018.08,0016.07
2022-09-08 04:28:00,,0829.3,5.00,0.00,29.7,28.8,00.0,38.3,31.7,16.3,0003.3,0030.28,0018.11,0016.06
2022-09-08 04:29:00,,0829.2,5.00,0.00,29.7,28.4,00.0,38.3,31.7,16.2,0003.4,0030.41,0018.06,0016.06
2022-09-08 04:30:00,,0829.2,5.00,0.00,29.7,26.9,00.0,38.3,31.4,16.2,0003.1,0029.19,0018.04,0016.12
2022-09-08 04:31:00,,0829.3,4.99,0.00,29.6,26.2,00.0,38.3,31.3,16.2,0003.3,0030.33,0018.07,0016.16
2022-09-08 04:32:00,,0829.3,5.00,0.00,29.5,26.4,00.0,38.2,31.3,16.1,0003.0,0030.65,0018.08,0016.19
2022-09-08 04:33:00,,0829.2,5.01,0.00,29.5,26.7,00.0,38.2,31.2,16.0,0002.8,0030.45,0018.06,0016.21
2022-09-08 04:34:00,,0829.3,4.99,0.00,29.4,27.1,00.0,38.1,31.2,16.1,0002.3,0029.83,0018.08,0016.20
2022-09-08 04:35:00,,0829.3,5.00,0.00,29.4,27.4,00.0,38.1,31.2,16.2,0001.8,0029.37,0018.07,0016.20
2022-09-08 04:36:00,,0829.2,5.01,0.00,29.4,27.7,00.0,38.2,31.3,16.2,0002.1,0030.07,0018.11,0016.21
2022-09-08 04:37:00,,0829.2,5.01,0.00,29.5,27.9,00.0,38.2,31.3,16.2,0002.4,0030.00,0018.10,0016.20
2022-09-08 04:38:00,,0829.2,4.98,0.00,29.5,28.1,00.0,38.2,31.4,16.2,0002.4,0029.63,0018.07,0016.19
2022-09-08 04:39:00,,0829.2,5.00,0.00,29.5,28.3,00.0,38.2,31.4,16.1,0002.3,0029.26,0018.00,0016.19
2022-09-08 04:40:00,,0829.2,5.00,0.00,29.5,28.4,00.0,38.2,31.5,16.1,0002.1,0028.99,0017.98,0016.17
2022-09-08 04:41:00,,0829.2,5.00,0.00,29.6,28.5,00.0,38.2,31.5,16.1,0001.8,0029.71,0018.01,0016.13
2022-09-08 04:42:00,,0829.2,4.99,0.00,29.6,28.7,00.0,38.3,31.6,15.9,0001.7,0029.41,0017.98,0016.11
2022-09-08 04:43:00,,0829.2,5.01,0.00,29.7,28.8,00.0,38.3,31.6,15.9,0001.4,0029.41,0017.92,0016.07
2022-09-08 04:44:00,,0829.2,4.99,0.00,29.7,28.7,00.0,38.3,31.7,15.8,0001.3,0029.58,0017.87,0016.03
2022-09-08 04:45:00,,0829.3,4.99,0.00,29.7,27.6,00.0,38.3,31.6,15.8,0001.5,0029.49,0017.79,0015.99
2022-09-08 04:46:00,,0829.3,5.00,0.00,29.7,26.3,00.0,38.3,31.4,15.8,0001.8,0029.50,0017.67,0015.96
2022-09-08 04:47:00,,0829.3,4.99,0.00,29.6,26.3,00.0,38.2,31.3,15.8,0001.7,0029.34,0017.50,0015.91
2022-09-08 04:48:00,,0829.2,5.01,0.00,29.5,26.5,00.0,38.2,31.1,15.8,0001.5,0030.02,0017.39,0015.85
2022-09-08 04:49:00,,0829.3,5.01,0.00,29.5,26.8,00.0,38.2,31.1,15.9,0001.6,0029.64,0017.25,0015.77
2022-09-08 04:50:00,,0829.2,4.99,0.00,29.4,27.2,00.0,38.2,31.2,16.0,0001.5,0028.85,0017.08,0015.68
2022-09-08 04:51:00,,0829.2,4.99,0.00,29.4,27.5,00.0,38.2,31.2,15.9,0001.4,0028.28,0017.00,0015.60
2022-09-08 04:52:00,,0829.2,5.00,0.00,29.5,27.8,00.0,38.2,31.3,15.9,0001.5,0027.39,0016.82,0015.51
2022-09-08 04:53:00,,0829.1,5.01,0.00,29.5,28.0,00.0,38.2,31.3,15.9,0001.3,0027.10,0016.68,0015.43
2022-09-08 04:54:00,,0829.1,5.00,0.00,29.5,28.2,00.0,38.2,31.4,16.0,0001.4,0027.39,0016.59,0015.38
2022-09-08 04:55:00,,0829.1,4.99,0.00,29.5,28.3,00.0,38.2,31.4,15.9,0001.6,0027.59,0016.57,0015.33
2022-09-08 04:56:00,,0829.1,4.99,0.00,29.6,28.5,00.0,38.2,31.5,15.9,0001.6,0027.25,0016.50,0015.27
2022-09-08 04:57:00,,0829.1,5.02,0.00,29.6,28.6,00.0,38.2,31.5,15.8,0001.5,0027.11,0016.47,0015.23
2022-09-08 04:58:00,,0829.1,4.99,0.00,29.6,28.7,00.0,38.3,31.6,15.8,0002.0,0026.81,0016.49,0015.21
2022-09-08 04:59:00,,0829.1,5.01,0.00,29.7,28.8,00.0,38.3,31.6,15.8,0002.3,0026.11,0016.48,0015.20
